Starlink 3071

operational
NORAD ID: 49147 Int'l Des: 2021-082 Owner: SPXS Country: US Constellation: starlink
LEOCIRCULAR

Über Starlink 3071

Beschreibung wird geladen...

Live-Position

3D-Globus wird geladen...

Nächste Überflüge

Höhenverlauf

Altitude vs Time

uPlot chart will show altitude changes over time

Zweizeiliger Elementsatz

1 49147U 21082T 25304.14908180 .00000656 00000-0 62789-4 0 9996
2 49147 69.9999 221.0730 0002533 278.3391 81.7481 14.98331770227563
Epoch: 31. Okt. 2025 • Age: 7 hours

Aktueller Status

Höhe 577.2 km
Geschwindigkeit 7.57 km/s
Subsatellitenpunkt 34.05°N, 173.19°W
Startdatum 14. Sept. 2021
Alter 4.1 years
Typ internet

Technische Details

Klassifizierung Payload
Masse 297.00 kg
Trockenmasse 275.00 kg
Gesamtmasse 297.00 kg
Länge 0.20 m
Durchmesser 2.80 m
Spannweite 9.00 m
Form Box + pan
Hersteller SPXS
Bus-Typ Starlink
Phasenstatus In Orbit
Besitzer/Staat SPXS/US

Große Konstellationen

Loading constellations...